Date String (YYYY-MM-DD hh:mm:ss) UTC,Instrument flags,absolute air pressure of the measurement (hPa),sample flow rate (lpm),inlet stack bypass flow (lpm),air temperature of the measurement (°C),ambient temperature measured by the external sensor (°C),aerosol sample conditioner tube jacket temperature (°C),OPC LED temperature (°C),internal box temperature (°C),relative humidity of the measurement (%),span deviation,mass concentration of particles derived from Lorenz-Mie calculation of OPC scattering (μg/m³),mass concentration of particles derived from Lorenz-Mie calculation of OPC scattering (μg/m³),mass concentration of particles derived from Lorenz-Mie calculation of OPC scattering (μg/m³)
DateTimeUTC,F1_M11,P_M11,Q1_M11,Q2_M11,T1_M11,T2_M11,T3_M11,T4_M11,T5_M11,U1_M11,ZSPAN_M11,X2_M11,X0_M11,X1_M11
2023-10-08 12:00:00,SystemResetWarning,0834.1,5.02,000.00,028.2,026.7,000.0,036.7,029.8,14.1,0000.0,0003.27,0009.49,0002.79
2023-10-08 12:01:00,SystemResetWarning,0834.1,5.01,000.00,028.2,026.7,000.0,036.7,029.8,13.9,0000.0,0003.30,0009.56,0002.80
2023-10-08 12:02:00,SystemResetWarning,0834.1,4.99,000.00,028.2,026.7,000.0,036.7,029.8,13.8,0000.0,0003.30,0009.61,0002.80
2023-10-08 12:03:00,SystemResetWarning,0834.1,4.99,000.00,028.2,026.6,000.0,036.7,029.8,13.6,0000.0,0003.33,0009.96,0002.78
2023-10-08 12:04:00,SystemResetWarning,0834.1,5.00,000.00,028.2,026.6,000.0,036.7,029.8,13.5,0000.0,0003.35,0009.58,0002.77
2023-10-08 12:05:00,SystemResetWarning,0834.1,5.00,000.00,028.2,026.6,000.0,036.6,029.7,13.0,0000.0,0003.37,0009.60,0002.77
2023-10-08 12:06:00,SystemResetWarning,0834.0,5.00,000.00,028.2,026.6,000.0,036.6,029.8,12.7,0000.0,0003.38,0009.59,0002.78
2023-10-08 12:07:00,SystemResetWarning,0834.0,5.00,000.00,028.2,026.6,000.0,036.7,029.8,12.7,0000.0,0003.38,0008.74,0002.78
2023-10-08 12:08:00,SystemResetWarning,0834.0,5.00,000.00,028.2,026.6,000.0,036.7,029.8,12.7,0000.0,0003.38,0008.68,0002.79
2023-10-08 12:09:00,SystemResetWarning,0834.0,5.00,000.00,028.2,026.6,000.0,036.7,029.8,12.7,0000.0,0003.37,0008.67,0002.78
2023-10-08 12:10:00,SystemResetWarning,0834.0,5.00,000.00,028.2,026.6,000.0,036.7,029.8,12.8,0000.0,0003.36,0008.44,0002.77
2023-10-08 12:11:00,SystemResetWarning,0834.0,5.00,000.00,028.2,026.6,000.0,036.6,029.8,12.8,0000.0,0003.34,0008.42,0002.77
2023-10-08 12:12:00,SystemResetWarning,0834.0,5.01,000.00,028.2,026.6,000.0,036.6,029.8,13.0,0000.0,0003.32,0008.37,0002.76
2023-10-08 12:13:00,SystemResetWarning,0834.1,5.00,000.00,028.2,026.6,000.0,036.6,029.8,12.9,0000.0,0003.34,0008.35,0002.76
2023-10-08 12:14:00,SystemResetWarning,0834.1,4.99,000.00,028.2,026.6,000.0,036.6,029.7,12.9,0000.0,0003.30,0007.48,0002.76
2023-10-08 12:15:00,SystemResetWarning,0834.1,4.99,000.00,028.2,026.6,000.0,036.6,029.8,12.9,0000.0,0003.29,0007.26,0002.77
2023-10-08 12:16:00,SystemResetWarning,0834.1,5.00,000.00,028.2,026.6,000.0,036.6,029.7,12.9,0000.0,0003.27,0006.45,0002.77
2023-10-08 12:17:00,SystemResetWarning,0834.1,5.00,000.00,028.1,026.6,000.0,036.6,029.8,12.8,0000.0,0003.27,0006.42,0002.76
2023-10-08 12:18:00,SystemResetWarning,0834.0,5.00,000.00,028.1,026.6,000.0,036.6,029.8,12.9,0000.0,0003.25,0006.26,0002.74
2023-10-08 12:19:00,SystemResetWarning,0834.0,5.00,000.00,028.1,026.6,000.0,036.6,029.7,12.9,0000.0,0003.27,0005.76,0002.73
2023-10-08 12:20:00,SystemResetWarning,0834.0,5.00,000.00,028.1,026.6,000.0,036.6,029.7,12.8,0000.0,0003.28,0005.91,0002.74
2023-10-08 12:21:00,SystemResetWarning,0834.0,5.00,000.00,028.1,026.5,000.0,036.6,029.7,12.6,0000.0,0003.31,0005.80,0002.76
2023-10-08 12:22:00,SystemResetWarning,0834.0,5.00,000.00,028.1,026.5,000.0,036.6,029.7,12.6,0000.0,0003.30,0005.59,0002.77
2023-10-08 12:23:00,SystemResetWarning,0834.0,5.00,000.00,028.1,026.5,000.0,036.6,029.7,12.7,0000.0,0003.30,0005.46,0002.78
2023-10-08 12:24:00,SystemResetWarning,0834.0,5.00,000.00,028.1,026.5,000.0,036.6,029.7,12.9,0000.0,0003.29,0005.37,0002.81
2023-10-08 12:25:00,SystemResetWarning,0834.0,5.00,000.00,028.1,026.5,000.0,036.5,029.7,13.0,0000.0,0003.31,0005.52,0002.87
2023-10-08 12:26:00,SystemResetWarning,0834.0,5.00,000.00,028.1,026.5,000.0,036.5,029.7,13.0,0000.0,0003.33,0005.87,0002.90
2023-10-08 12:27:00,SystemResetWarning,0834.0,5.00,000.00,028.1,026.5,000.0,036.5,029.7,13.0,0000.0,0003.35,0006.15,0002.94
2023-10-08 12:28:00,SystemResetWarning,0834.1,5.00,000.00,028.1,026.5,000.0,036.5,029.7,13.0,0000.0,0003.38,0006.62,0002.98
2023-10-08 12:29:00,SystemResetWarning,0834.0,5.00,000.00,028.1,026.5,000.0,036.5,029.7,13.0,0000.0,0003.43,0006.86,0003.04
2023-10-08 12:30:00,SystemResetWarning,0834.1,5.00,000.00,028.1,026.5,000.0,036.5,029.7,13.0,0000.0,0003.45,0007.23,0003.09
2023-10-08 12:31:00,SystemResetWarning,0834.0,4.99,000.00,028.1,026.5,000.0,036.5,029.6,12.9,0000.0,0003.45,0007.15,0003.11
2023-10-08 12:32:00,SystemResetWarning,0834.0,5.00,000.00,028.0,026.5,000.0,036.5,029.6,12.9,0000.0,0003.42,0007.05,0003.13
2023-10-08 12:33:00,SystemResetWarning,0834.1,5.00,000.00,028.0,026.5,000.0,036.5,029.6,12.8,0000.0,0003.46,0007.12,0003.15
2023-10-08 12:34:00,SystemResetWarning,0834.0,4.99,000.00,028.0,026.4,000.0,036.5,029.6,12.8,0000.0,0003.49,0007.20,0003.18
2023-10-08 12:35:00,SystemResetWarning,0834.1,5.00,000.00,028.0,026.4,000.0,036.5,029.6,12.8,0000.0,0003.51,0007.71,0003.18
2023-10-08 12:36:00,SystemResetWarning,0834.1,5.00,000.00,028.0,026.4,000.0,036.5,029.6,12.8,0000.0,0003.52,0007.97,0003.17
2023-10-08 12:37:00,SystemResetWarning,0834.1,5.01,000.00,028.0,026.4,000.0,036.5,029.6,12.9,0000.0,0003.51,0007.74,0003.18
2023-10-08 12:38:00,SystemResetWarning,0834.1,5.01,000.00,028.0,026.4,000.0,036.5,029.6,12.9,0000.0,0003.48,0007.51,0003.16
2023-10-08 12:39:00,SystemResetWarning,0834.0,5.01,000.00,028.0,026.4,000.0,036.5,029.6,13.0,0000.0,0003.45,0007.24,0003.14
2023-10-08 12:40:00,SystemResetWarning,0834.0,4.98,000.00,028.0,026.4,000.0,036.4,029.6,13.0,0000.0,0003.41,0007.02,0003.11
2023-10-08 12:41:00,SystemResetWarning,0834.0,4.99,000.00,028.0,026.4,000.0,036.5,029.6,13.0,0000.0,0003.34,0006.34,0003.06
2023-10-08 12:42:00,SystemResetWarning,0834.1,5.01,000.00,028.0,026.4,000.0,036.4,029.5,13.0,0000.0,0003.27,0007.31,0002.95
2023-10-08 12:43:00,SystemResetWarning,0834.1,5.01,000.00,028.0,026.4,000.0,036.4,029.5,13.0,0000.0,0003.24,0007.64,0002.84
2023-10-08 12:44:00,SystemResetWarning,0834.1,5.00,000.00,028.0,026.4,000.0,036.4,029.5,12.9,0000.0,0003.18,0007.58,0002.75
2023-10-08 12:45:00,SystemResetWarning,0834.1,5.00,000.00,028.0,026.4,000.0,036.4,029.6,13.1,0000.0,0003.14,0007.55,0002.66
2023-10-08 12:46:00,SystemResetWarning,0834.1,5.00,000.00,028.0,026.4,000.0,036.4,029.6,13.2,0000.0,0003.11,0007.17,0002.59
2023-10-08 12:47:00,SystemResetWarning,0834.1,5.00,000.00,028.0,026.4,000.0,036.4,029.5,13.3,0000.0,0003.05,0006.34,0002.52
2023-10-08 12:48:00,SystemResetWarning,0834.1,5.00,000.00,027.9,026.4,000.0,036.4,029.5,13.4,0000.0,0003.02,0006.45,0002.45
2023-10-08 12:49:00,SystemResetWarning,0834.1,5.00,000.00,027.9,026.4,000.0,036.4,029.5,13.4,0000.0,0003.00,0006.46,0002.42
2023-10-08 12:50:00,SystemResetWarning,0834.1,5.00,000.00,027.9,026.4,000.0,036.4,029.6,13.4,0000.0,0003.00,0006.42,0002.39
2023-10-08 12:51:00,SystemResetWarning,0834.1,5.00,000.00,028.0,026.4,000.0,036.4,029.6,13.5,0000.0,0002.99,0006.44,0002.38
2023-10-08 12:52:00,SystemResetWarning,0834.1,5.00,000.00,028.0,026.4,000.0,036.4,029.6,13.6,0000.0,0002.98,0006.44,0002.38
2023-10-08 12:53:00,SystemResetWarning,0834.1,5.00,000.00,027.9,026.4,000.0,036.4,029.6,13.8,0000.0,0003.02,0005.45,0002.42
2023-10-08 12:54:00,SystemResetWarning,0834.1,5.00,000.00,027.9,026.4,000.0,036.4,029.6,13.8,0000.0,0003.01,0005.06,0002.44
2023-10-08 12:55:00,SystemResetWarning,0834.2,5.00,000.00,027.9,026.4,000.0,036.4,029.5,13.9,0000.0,0003.01,0004.95,0002.45
2023-10-08 12:56:00,SystemResetWarning,0834.1,4.99,000.00,027.9,026.4,000.0,036.4,029.5,13.9,0000.0,0003.01,0005.27,0002.46
2023-10-08 12:57:00,SystemResetWarning,0834.1,5.00,000.00,027.9,026.4,000.0,036.4,029.5,13.9,0000.0,0002.94,0005.12,0002.45
2023-10-08 12:58:00,SystemResetWarning,0834.1,5.00,000.00,027.9,026.4,000.0,036.4,029.5,14.0,0000.0,0002.85,0004.91,0002.42
2023-10-08 12:59:00,SystemResetWarning,0834.1,4.99,000.00,027.9,026.4,000.0,036.4,029.5,13.9,0000.0,0002.79,0004.70,0002.41
